Location: Pasadena, ca
(34.1243°N, 118.1037°W)
Time: 06:37:31
(UTC-08:00)

Tiangong 2 - Pass Details

Date: 13 November 2017
Orbit: 386 x 392 km, 42.8° (Epoch: 24 November)

Event Time Altitude Azimuth Distance (km) Brightness Sun altitude
Rises 17:23:17 0° 299° (WNW) 2,274 5.7 -7.4°
Reaches altitude 10° 17:25:22 10° 299° (WNW) 1,415 4.6 -7.8°
Maximum altitude 17:28:33 88° 29° (NNE) 390 1.0 -8.5°
Drops below altitude 10° 17:31:44 10° 119° (ESE) 1,406 3.5 -9.1°
Enters shadow 17:32:31 - 119° (ESE) 1,729 3.9 -9.3°
